Weather in Klimov Zavod

Russia / Kaluga Oblast     54°49′50″N   34°54′55″E
temp.,
°C
wind,
m/s
gust,
m/s
humid.,
%
clouds,
%
prec.,
mm/h
press.,
hPa
HPBL,
m
27 january, wed
wed2700:00−1sse71583100 0.1 10011249
03:00−1s81789100 0.4 9991362
06:00−1ssw81688100 0.4 10001248
09:00−2ssw61488100 0.5 10021067
12:00−1sw61184100 0.1 10051081
15:00−1ssw4986100 0.1 1006805
18:00−2ssw2791100 0.0 1007286
21:00−4ssw2595100 0.0 1007134
28 january, thu
thu2800:00−4ssw1294100 0.0 100821
03:00−4e1194100 0.0 100723
06:00−3ene2496100 0.3 1006203
09:00−3ene2796100 0.6 1004305
12:00−2ne2497100 1.2 1004219
15:000ne1299100 2.4 100271
18:00+1se3799100 0.6 1001253
21:00+1se41098100 1.1 1000361
29 january, fri
fri2900:00+2se4998100 0.8 998341
03:00+2se41098100 1.0 997374
06:00+1sse51194100 0.1 995676
09:00−2sse3119389 0.1 995530
12:00−1sse5108497 0.1 993969
15:00−1se5109098 0.4 991881
18:00−2sse4994100 0.3 990616
21:00−3sw4995100 1.1 991660
30 january, sat
sat3000:00−6ssw379595 0.1 992265
03:00−5ssw499096 0.4 993563
06:00−6sw4109099 0.1 993518
09:00−7sw4989100 0.1 994514
12:00−6sw5984100 0.0 995640
15:00−5ssw4886100 0.1 996647
18:00−4s3889100 0.1 996729
21:00−4s3895100 0.4 995457
31 january, sun
sun3100:00−5ese2597100 0.5 993218
03:00−5ene239899 0.6 991117
06:00−4nne3596100 0.6 988202
09:00−4n4896100 2.0 987369
12:00−4nnw61194100 1.4 986536
15:00−4wnw61184100 1.9 988772
18:00−6w51189100 0.0 993758
21:00−6w41191100 0.1 997878